Regional Weather Roundup
Issued by NWS

Home | Current Version | Previous Version | Graphics & Text | Print | Product List | Glossary On
Versions: 1 2 3 4 5 6 7 8 9 10 11 12 13 14 15 16 17 18 19 20 21 22 23 24 25 26 27 28 29 30 31 32 33 34 35 36 37 38 39 40 41 42 43 44 45 46 47 48 49 50
000
ASUS43 KDTX 291910
RWRMI
MICHIGAN HOURLY REGIONAL WEATHER ROUNDUP
NATIONAL WEATHER SERVICE DETROIT/PONTIAC MI
300 PM EDT FRI AUG 29 2014

NOTE: "FAIR" INDICATES FEW OR NO CLOUDS BELOW 12,000 FEET WITH NO
SIGNIFICANT WEATHER AND/OR OBSTRUCTION TO VISIBILITY.

MIZ047>049-052>055-059>063-066>070-074>076-081>083-292000-
SOUTHEAST LOWER MICHIGAN

CITY           SKY/WX    TMP DP  RH WIND       PRES   REMARKS
ADRIAN         MOSUNNY   77  61  57 SE6       30.08F
ALMA           CLOUDY    70  59  67 SE5       30.06S
ANN ARBOR      PTSUNNY   76  59  55 SE8       30.08F
BAD AXE        PTSUNNY   73  61  65 S14       30.09F
DETROIT CITY   PTSUNNY   75  54  47 S8        30.10F
DETROIT        PTSUNNY   73  56  54 SE8       30.10F
FLINT          PTSUNNY   76  56  49 S10       30.08F
GROSSE ILE     PTSUNNY   72  59  64 SE5       30.09F
HILLSDALE      MOSUNNY   79  62  56 S5        30.07F
HOWELL         PTSUNNY   71  58  62 SE9       30.08F

CITY           SKY/WX    TMP DP  RH WIND       PRES   REMARKS
JACKSON        PTSUNNY   76  61  59 S12       30.07F
LAMBERTVILLE   MOSUNNY   79  61  53 E5        30.08F
LANSING        CLOUDY    74  60  61 S10       30.06F
LAPEER         NOT AVBL
MASON          CLOUDY    73  62  68 SE9       30.07F
MONROE         PTSUNNY   73  61  64 E6        30.07F
MT. CLEMENS    PTSUNNY   73  56  54 S13       30.10F
PONTIAC        CLOUDY    72  53  51 SE12      30.09F
PORT HOPE        N/A     71  57  61 S9        30.07F
PORT HURON     PTSUNNY   73  57  56 S12G17    30.11F
TRI CITIES     CLOUDY    74  59  59 S13       30.06F
YPSILANTI      PTSUNNY   78  56  46 SE9       30.10F
$$
MIZ043>046-050>051-056>058-064>065-071>073-077>080-292000-
SOUTHWEST LOWER MICHIGAN

CITY           SKY/WX    TMP DP  RH WIND       PRES   REMARKS
BATTLE CREEK   CLOUDY    76  63  64 S8        30.05F
BENTON HARBOR  PTSUNNY   76  69  79 SE7       29.99F
BIG RAPIDS     RAIN      66  62  85 SE6       30.02F
COLDWATER      PTSUNNY   80  64  57 SE7       30.04F
HOLLAND        CLOUDY    79  69  71 E7        30.01F
GRAND RAPIDS   PTSUNNY   75  67  76 SE7       30.03F
KALAMAZOO      PTSUNNY   77  65  66 SE8       30.03F
MARSHALL       MOSUNNY   78  63  59 SE9       30.05F
MUSKEGON       CLOUDY    75  68  78 SE12      29.99F
$$
MIZ016>042-292000-
NORTHERN LOWER MICHIGAN

CITY           SKY/WX    TMP DP  RH WIND       PRES   REMARKS
ALPENA         CLOUDY    62  59  90 SE16      30.05F
BEAVER ISLAND  PTSUNNY   67  63  85 S12G20    29.94F
BELLAIRE       MOSUNNY   74  64  70 S8        29.95
CADILLAC       CLOUDY    70  63  78 S9G16     30.01S
CHARLEVOIX     PTSUNNY   71  66  85 S12       29.97F
FRANKFORT      PTCLDY    80  65  61 S14G21    29.93F
GAYLORD        MOSUNNY   66  60  81 S17G25    30.01F
GRAYLING       CLOUDY    69  62  77 S7G17     30.03F
HARBOR SPRINGS CLOUDY    66  62  88 E5        29.96F
HOUGHTON LAKE  CLOUDY    70  61  73 S13       30.04F
MANISTEE       PTSUNNY   75  64  69 SE10G16   29.96S
OSCODA         CLOUDY    67  60  79 SE6       30.07F
PELLSTON       CLOUDY    67  63  87 SE9       29.96F
TRAVERSE CITY  CLOUDY    77  64  64 S7        29.94F
$$
MIZ007>008-015-292000-
EASTERN UPPER MICHIGAN

CITY           SKY/WX    TMP DP  RH WIND       PRES   REMARKS
KINROSS        CLOUDY    61  61 100 SE16G23   29.99F
MACKINAC ISLAN CLOUDY    60  60  99 SE10      29.98F
NEWBERRY       CLOUDY    60  59  97 S7        29.95F FOG
S. S. MARIE    CLOUDY    60  57  89 SE12G22   29.99F
$$
MIZ004>006-011>014-085-292000-
CENTRAL UPPER MICHIGAN

CITY           SKY/WX    TMP DP  RH WIND       PRES   REMARKS
MANISTIQUE     RAIN      62  62  98 SE8       29.92F
ESCANABA       CLOUDY    66  63  88 S6        29.90S
MENOMINEE      CLOUDY    72  66  83 S8        29.87F
SAWYER-GWINN   LGT RAIN  63  61  94 S12       29.89F
$$
MIZ001>003-009>011-084-292000-
WESTERN UPPER MICHIGAN

CITY           SKY/WX    TMP DP  RH WIND       PRES   REMARKS
IRON MOUNTAIN  LGT RAIN  66  63  90 S6        29.88F FOG
HOUGHTON       CLOUDY    64  61  90 S10       29.83F
COPPER HARBOR    N/A     62  59  90 SW14G24   29.81F
$$

ABBREVIATIONS USED IN REMARKS
   TC - TEMPERATURE IN CELSIUS
  WCI - WIND CHILL INDEX
   HX - HEAT INDEX
  VSB - VISIBILITY



USA.gov is the U.S. government's official web portal to all federal, state and local government web resources and services.